datetime,inst air temperature
1990-10-01,42.44
1990-10-02,21.2
1990-10-03,29.3
1990-10-04,32.18
1990-10-05,33.62
1990-10-06,12.74
1990-10-07,12.56
1990-10-08,18.68
1990-10-09,29.48
1990-10-10,31.28
1990-10-11,15.8
1990-10-12,30.74
1990-10-13,24.26
1990-10-14,22.82
1990-10-15,30.74
1990-10-16,22.64
1990-10-17,0.68
1990-10-18,35.42
1990-10-19,24.26
1990-10-20,20.66
1990-10-21,29.48
1990-10-22,35.6
1990-10-23,31.82
1990-10-24,40.28
1990-10-25,46.94
1990-10-26,37.04
1990-10-27,40.46
1990-10-28,38.48
1990-10-29,31.28
1990-10-30,32.72
1990-10-31,31.82
1990-11-01,19.94
1990-11-02,16.88
1990-11-03,24.08
1990-11-04,33.98
1990-11-05,21.74
1990-11-06,19.58
1990-11-07,23.54
1990-11-08,35.78
1990-11-09,31.46
1990-11-10,37.04
1990-11-11,37.58
1990-11-12,37.4
1990-11-13,39.2
1990-11-14,26.24
1990-11-15,18.68
1990-11-16,30.2
1990-11-17,28.76
1990-11-18,27.5
1990-11-19,21.56
1990-11-20,16.7
1990-11-21,23.0
1990-11-22,24.8
1990-11-23,27.14
1990-11-24,35.96
1990-11-25,33.98
1990-11-26,13.64
1990-11-27,16.52
1990-11-28,14.36
1990-11-29,27.32
1990-11-30,22.64
1990-12-01,14.36
1990-12-02,15.62
1990-12-03,21.38
1990-12-04,31.1
1990-12-05,21.38
1990-12-06,19.76
1990-12-07,26.24
1990-12-08,32.18
1990-12-09,35.06
1990-12-10,32.0
1990-12-11,21.02
1990-12-12,10.94
1990-12-13,15.26
1990-12-14,7.7
1990-12-15,16.16
1990-12-16,17.6
1990-12-17,25.34
1990-12-18,25.34
1990-12-19,6.98
1990-12-20,-16.96
1990-12-21,-24.34
1990-12-22,-12.1
1990-12-23,4.28
1990-12-24,10.04
1990-12-25,13.28
1990-12-26,21.2
1990-12-27,16.88
1990-12-28,13.1
1990-12-29,-2.56
1990-12-30,9.86
1990-12-31,19.76
1991-01-01,26.06
1991-01-02,23.72
1991-01-03,26.96
1991-01-04,25.88
1991-01-05,24.62
1991-01-06,22.46
1991-01-07,23.36
1991-01-08,19.76
1991-01-09,20.12
1991-01-10,24.62
1991-01-11,27.5
1991-01-12,28.94
1991-01-13,31.64
1991-01-14,30.02
1991-01-15,28.4
1991-01-16,19.94
1991-01-17,30.02
1991-01-18,27.86
1991-01-19,26.6
1991-01-20,15.26
1991-01-21,8.06
1991-01-22,24.44
1991-01-23,27.5
1991-01-24,23.18
1991-01-25,19.94
1991-01-26,24.98
1991-01-27,21.92
1991-01-28,18.86
1991-01-29,11.48
1991-01-30,23.72
1991-01-31,28.4
1991-02-01,28.58
1991-02-02,30.38
1991-02-03,28.22
1991-02-04,26.96
1991-02-05,29.12
1991-02-06,22.28
1991-02-07,24.98
1991-02-08,30.92
1991-02-09,25.16
1991-02-10,26.96
1991-02-11,33.26
1991-02-12,23.18
1991-02-13,32.18
1991-02-14,32.0
1991-02-15,37.22
1991-02-16,28.58
1991-02-17,22.46
1991-02-18,19.58
1991-02-19,29.12
1991-02-20,27.32
1991-02-21,32.0
1991-02-22,30.2
1991-02-23,24.26
1991-02-24,21.92
1991-02-25,26.96
1991-02-26,29.12
1991-02-27,28.76
1991-02-28,29.3
1991-03-01,28.76
1991-03-02,24.62
1991-03-03,28.76
1991-03-04,28.4
1991-03-05,15.26
1991-03-06,12.38
1991-03-07,9.14
1991-03-08,13.28
1991-03-09,26.06
1991-03-10,19.76
1991-03-11,10.58
1991-03-12,19.4
1991-03-13,17.06
1991-03-14,17.42
1991-03-15,15.98
1991-03-16,13.82
1991-03-17,18.32
1991-03-18,24.8
1991-03-19,21.38
1991-03-20,12.38
1991-03-21,19.94
1991-03-22,19.58
1991-03-23,21.74
1991-03-24,16.16
1991-03-25,20.48
1991-03-26,17.6
1991-03-27,17.78
1991-03-28,21.02
1991-03-29,17.06
1991-03-30,25.52
1991-03-31,28.22
1991-04-01,28.76
1991-04-02,28.58
1991-04-03,24.62
1991-04-04,30.74
1991-04-05,33.8
1991-04-06,24.44
1991-04-07,16.52
1991-04-08,12.38
1991-04-09,29.3
1991-04-10,12.02
1991-04-11,10.22
1991-04-12,23.18
1991-04-13,24.26
1991-04-14,26.42
1991-04-15,23.0
1991-04-16,24.08
1991-04-17,26.24
1991-04-18,25.88
1991-04-19,26.06
1991-04-20,31.1
1991-04-21,30.02
1991-04-22,31.1
1991-04-23,29.84
1991-04-24,29.48
1991-04-25,16.34
1991-04-26,20.84
1991-04-27,15.08
1991-04-28,24.62
1991-04-29,23.18
1991-04-30,26.42
1991-05-01,31.82
1991-05-02,29.3
1991-05-03,28.04
1991-05-04,26.06
1991-05-05,33.98
1991-05-06,32.72
1991-05-07,28.76
1991-05-08,32.54
1991-05-09,15.8
1991-05-10,23.54
1991-05-11,28.58
1991-05-12,31.82
1991-05-13,31.28
1991-05-14,28.4
1991-05-15,26.96
1991-05-16,34.7
1991-05-17,28.22
1991-05-18,23.36
1991-05-19,28.04
1991-05-20,31.82
1991-05-21,32.36
1991-05-22,34.34
1991-05-23,35.24
1991-05-24,36.14
1991-05-25,26.96
1991-05-26,26.24
1991-05-27,28.58
1991-05-28,31.82
1991-05-29,28.22
1991-05-30,26.24
1991-05-31,26.96
1991-06-01,38.12
1991-06-02,41.18
1991-06-03,37.58
1991-06-04,26.96
1991-06-05,27.86
1991-06-06,26.6
1991-06-07,31.1
1991-06-08,34.34
1991-06-09,40.1
1991-06-10,47.66
1991-06-11,46.4
1991-06-12,36.14
1991-06-13,24.98
1991-06-14,24.98
1991-06-15,34.34
1991-06-16,31.64
1991-06-17,27.32
1991-06-18,39.92
1991-06-19,37.04
1991-06-20,31.64
1991-06-21,32.72
1991-06-22,33.26
1991-06-23,34.88
1991-06-24,34.88
1991-06-25,33.98
1991-06-26,33.8
1991-06-27,36.68
1991-06-28,39.2
1991-06-29,40.82
1991-06-30,35.06
1991-07-01,42.08
1991-07-02,49.1
1991-07-03,55.22
1991-07-04,58.28
1991-07-05,51.62
1991-07-06,47.84
1991-07-07,48.56
1991-07-08,48.2
1991-07-09,51.44
1991-07-10,38.84
1991-07-11,45.5
1991-07-12,51.62
1991-07-13,51.26
1991-07-14,48.38
1991-07-15,43.88
1991-07-16,49.64
1991-07-17,53.96
1991-07-18,39.02
1991-07-19,47.12
1991-07-20,44.42
1991-07-21,44.78
1991-07-22,51.98
1991-07-23,54.14
1991-07-24,53.42
1991-07-25,46.22
1991-07-26,42.26
1991-07-27,46.58
1991-07-28,53.6
1991-07-29,52.52
1991-07-30,49.82
1991-07-31,52.88
1991-08-01,40.46
1991-08-02,47.66
1991-08-03,53.42
1991-08-04,53.78
1991-08-05,47.84
1991-08-06,43.88
1991-08-07,44.6
1991-08-08,46.58
1991-08-09,46.76
1991-08-10,37.04
1991-08-11,41.0
1991-08-12,45.68
1991-08-13,46.94
1991-08-14,47.3
1991-08-15,53.06
1991-08-16,46.76
1991-08-17,50.72
1991-08-18,49.46
1991-08-19,50.0
1991-08-20,54.86
1991-08-21,50.18
1991-08-22,53.06
1991-08-23,50.9
1991-08-24,47.3
1991-08-25,43.34
1991-08-26,44.06
1991-08-27,44.42
1991-08-28,41.36
1991-08-29,41.72
1991-08-30,45.32
1991-08-31,47.48
1991-09-01,42.08
1991-09-02,41.36
1991-09-03,46.94
1991-09-04,69.62
1991-09-05,50.9
1991-09-06,50.54
1991-09-07,44.06
1991-09-08,35.78
1991-09-09,34.7
1991-09-10,36.14
1991-09-11,39.92
1991-09-12,42.08
1991-09-13,45.86
1991-09-14,33.8
1991-09-15,37.94
1991-09-16,47.84
1991-09-17,52.16
1991-09-18,49.1
1991-09-19,51.08
1991-09-20,50.72
1991-09-21,33.26
1991-09-22,30.74
1991-09-23,44.6
1991-09-24,44.06
1991-09-25,51.8
1991-09-26,50.0
1991-09-27,47.3
1991-09-28,41.9
1991-09-29,37.22
1991-09-30,44.78
1991-10-01,49.82
1991-10-02,46.04
1991-10-03,47.3
1991-10-04,41.72
1991-10-05,50.54
1991-10-06,50.18
1991-10-07,44.42
1991-10-08,43.16
1991-10-09,42.44
1991-10-10,45.5
1991-10-11,50.18
1991-10-12,49.1
1991-10-13,40.82
1991-10-14,45.86
1991-10-15,51.08
1991-10-16,46.22
1991-10-17,37.58
1991-10-18,38.66
1991-10-19,38.3
1991-10-20,36.86
1991-10-21,41.72
1991-10-22,32.0
1991-10-23,21.02
1991-10-24,22.1
1991-10-25,26.42
1991-10-26,29.84
1991-10-27,18.86
1991-10-28,13.64
1991-10-29,23.36
1991-10-30,8.6
1991-10-31,25.52
1991-11-01,29.3
1991-11-02,32.9
1991-11-03,34.34
1991-11-04,35.24
1991-11-05,37.94
1991-11-06,42.62
1991-11-07,38.66
1991-11-08,43.88
1991-11-09,33.44
1991-11-10,30.56
1991-11-11,35.78
1991-11-12,37.4
1991-11-13,32.54
1991-11-14,20.12
1991-11-15,18.32
1991-11-16,21.92
1991-11-17,24.62
1991-11-18,22.82
1991-11-19,21.56
1991-11-20,30.38
1991-11-21,21.56
1991-11-22,8.96
1991-11-23,29.12
1991-11-24,33.8
1991-11-25,34.34
1991-11-26,31.82
1991-11-27,22.1
1991-11-28,14.72
1991-11-29,15.98
1991-11-30,7.7
1991-12-01,20.66
1991-12-02,26.96
1991-12-03,23.36
1991-12-04,30.2
1991-12-05,31.82
1991-12-06,34.7
1991-12-07,24.26
1991-12-08,17.96
1991-12-09,23.36
1991-12-10,24.62
1991-12-11,18.68
1991-12-12,25.88
1991-12-13,15.26
1991-12-14,29.3
1991-12-15,29.48
1991-12-16,28.94
1991-12-17,29.3
1991-12-18,28.58
1991-12-19,16.52
1991-12-20,12.2
1991-12-21,31.46
1991-12-22,28.76
1991-12-23,25.34
1991-12-24,25.34
1991-12-25,27.86
1991-12-26,33.08
1991-12-27,32.36
1991-12-28,27.86
1991-12-29,23.36
1991-12-30,21.56
1991-12-31,17.42
1992-01-01,28.4
1992-01-02,24.44
1992-01-03,28.58
1992-01-04,24.08
1992-01-05,25.16
1992-01-06,19.58
1992-01-07,15.8
1992-01-08,12.92
1992-01-09,30.92
1992-01-10,32.0
1992-01-11,18.32
1992-01-12,8.78
1992-01-13,23.18
1992-01-14,21.38
1992-01-15,27.32
1992-01-16,28.94
1992-01-17,24.98
1992-01-18,16.16
1992-01-19,24.62
1992-01-20,23.0
1992-01-21,25.52
1992-01-22,22.46
1992-01-23,25.52
1992-01-24,26.6
1992-01-25,27.14
1992-01-26,24.26
1992-01-27,29.3
1992-01-28,29.12
1992-01-29,27.32
1992-01-30,37.04
1992-01-31,36.68
1992-02-01,27.5
1992-02-02,16.52
1992-02-03,24.08
1992-02-04,21.38
1992-02-05,22.28
1992-02-06,25.52
1992-02-07,28.4
1992-02-08,25.52
1992-02-09,28.4
1992-02-10,28.76
1992-02-11,26.96
1992-02-12,29.48
1992-02-13,25.7
1992-02-14,23.72
1992-02-15,19.04
1992-02-16,19.94
1992-02-17,19.76
1992-02-18,23.18
1992-02-19,28.22
1992-02-20,31.82
1992-02-21,29.3
1992-02-22,27.86
1992-02-23,19.94
1992-02-24,33.26
1992-02-25,35.06
1992-02-26,33.08
1992-02-27,33.44
1992-02-28,34.88
1992-02-29,33.08
1992-03-01,29.66
1992-03-02,27.32
1992-03-03,31.82
1992-03-04,24.44
1992-03-05,29.12
1992-03-06,24.26
1992-03-07,27.5
1992-03-08,26.06
1992-03-09,22.28
1992-03-10,26.06
1992-03-11,27.86
1992-03-12,30.74
1992-03-13,30.38
1992-03-14,31.64
1992-03-15,21.38
1992-03-16,24.62
1992-03-17,24.8
1992-03-18,17.24
1992-03-19,21.2
1992-03-20,27.68
1992-03-21,25.52
1992-03-22,26.96
1992-03-23,26.96
1992-03-24,26.06
1992-03-25,30.2
1992-03-26,29.66
1992-03-27,24.08
1992-03-28,25.7
1992-03-29,30.02
1992-03-30,32.18
1992-03-31,31.82
1992-04-01,34.52
1992-04-02,39.02
1992-04-03,34.7
1992-04-04,27.5
1992-04-05,18.32
1992-04-06,17.96
1992-04-07,22.46
1992-04-08,30.74
1992-04-09,33.44
1992-04-10,32.0
1992-04-11,39.74
1992-04-12,32.36
1992-04-13,28.22
1992-04-14,28.76
1992-04-15,31.1
1992-04-16,33.62
1992-04-17,35.78
1992-04-18,24.08
1992-04-19,26.06
1992-04-20,37.22
1992-04-21,28.94
1992-04-22,21.74
1992-04-23,17.24
1992-04-24,33.26
1992-04-25,38.3
1992-04-26,39.02
1992-04-27,37.58
1992-04-28,39.38
1992-04-29,45.5
1992-04-30,31.28
1992-05-01,24.62
1992-05-02,31.64
1992-05-03,40.82
1992-05-04,43.88
1992-05-05,47.66
1992-05-06,48.74
1992-05-07,53.06
1992-05-08,41.54
1992-05-09,29.66
1992-05-10,32.54
1992-05-11,34.7
1992-05-12,31.1
1992-05-13,37.04
1992-05-14,38.48
1992-05-15,39.02
1992-05-16,35.78
1992-05-17,49.46
1992-05-18,39.02
1992-05-19,35.78
1992-05-20,31.82
1992-05-21,26.6
1992-05-22,34.88
1992-05-23,44.24
1992-05-24,50.54
1992-05-25,53.24
1992-05-26,39.74
1992-05-27,33.98
1992-05-28,41.72
1992-05-29,38.12
1992-05-30,45.86
1992-05-31,48.92
1992-06-01,51.26
1992-06-02,44.78
1992-06-03,41.9
1992-06-04,47.66
1992-06-05,36.86
1992-06-06,44.06
1992-06-07,44.6
1992-06-08,42.08
1992-06-09,41.72
1992-06-10,38.84
1992-06-11,43.7
1992-06-12,33.8
1992-06-13,28.22
1992-06-14,29.66
1992-06-15,32.36
1992-06-16,33.8
1992-06-17,35.6
1992-06-18,40.82
1992-06-19,45.5
1992-06-20,47.3
1992-06-21,52.88
1992-06-22,58.28
1992-06-23,61.7
1992-06-24,54.68
1992-06-25,45.86
1992-06-26,48.2
1992-06-27,48.56
1992-06-28,43.52
1992-06-29,34.16
1992-06-30,35.24
1992-07-01,38.48
1992-07-02,41.36
1992-07-03,41.36
1992-07-04,42.8
1992-07-05,40.46
1992-07-06,39.02
1992-07-07,34.16
1992-07-08,39.38
1992-07-09,39.2
1992-07-10,45.32
1992-07-11,40.46
1992-07-12,41.54
1992-07-13,46.22
1992-07-14,45.86
1992-07-15,45.5
1992-07-16,52.16
1992-07-17,55.94
1992-07-18,50.36
1992-07-19,50.72
1992-07-20,49.82
1992-07-21,43.7
1992-07-22,45.14
1992-07-23,32.54
1992-07-24,37.94
1992-07-25,45.68
1992-07-26,52.88
1992-07-27,53.6
1992-07-28,55.22
1992-07-29,51.44
1992-07-30,55.94
1992-07-31,58.1
1992-08-01,53.6
1992-08-02,51.62
1992-08-03,50.18
1992-08-04,48.56
1992-08-05,44.96
1992-08-06,48.02
1992-08-07,43.34
1992-08-08,44.96
1992-08-09,44.06
1992-08-10,52.88
1992-08-11,55.58
1992-08-12,59.9
1992-08-13,55.04
1992-08-14,58.46
1992-08-15,61.88
1992-08-16,51.98
1992-08-17,72.68
1992-08-18,57.02
1992-08-19,58.46
1992-08-20,48.74
1992-08-21,48.92
1992-08-22,29.84
1992-08-23,29.3
1992-08-24,32.9
1992-08-25,39.38
1992-08-26,41.36
1992-08-27,48.38
1992-08-28,49.1
1992-08-29,45.68
1992-08-30,45.68
1992-08-31,42.62
1992-09-01,39.74
1992-09-02,
1992-09-03,42.08
1992-09-04,37.04
1992-09-05,34.88
1992-09-06,30.02
1992-09-07,30.2
1992-09-08,40.64
1992-09-09,39.92
1992-09-10,47.84
1992-09-11,46.04
1992-09-12,38.48
1992-09-13,33.26
1992-09-14,35.6
1992-09-15,38.66
1992-09-16,37.58
1992-09-17,43.88
1992-09-18,40.82
1992-09-19,48.74
1992-09-20,42.8
1992-09-21,46.4
1992-09-22,53.96
1992-09-23,46.4
1992-09-24,42.08
1992-09-25,31.46
1992-09-26,38.66
1992-09-27,41.18
1992-09-28,46.22
1992-09-29,53.78
1992-09-30,54.68
1992-10-01,47.12
1992-10-02,40.28
1992-10-03,33.26
1992-10-04,30.2
1992-10-05,33.08
1992-10-06,35.24
1992-10-07,38.48
1992-10-08,40.28
1992-10-09,40.46
1992-10-10,41.72
1992-10-11,51.44
1992-10-12,50.18
1992-10-13,41.72
1992-10-14,26.42
1992-10-15,29.66
1992-10-16,35.78
1992-10-17,33.8
1992-10-18,40.64
1992-10-19,36.68
1992-10-20,40.82
1992-10-21,37.04
1992-10-22,30.74
1992-10-23,40.1
1992-10-24,39.56
1992-10-25,40.82
1992-10-26,39.74
1992-10-27,39.74
1992-10-28,35.24
1992-10-29,30.74
1992-10-30,28.04
1992-10-31,27.68
1992-11-01,36.86
1992-11-02,35.24
1992-11-03,24.44
1992-11-04,31.64
1992-11-05,26.42
1992-11-06,38.84
1992-11-07,37.94
1992-11-08,25.16
1992-11-09,19.76
1992-11-10,10.22
1992-11-11,24.8
1992-11-12,32.9
1992-11-13,35.6
1992-11-14,38.66
1992-11-15,34.16
1992-11-16,32.54
1992-11-17,29.12
1992-11-18,23.18
1992-11-19,24.62
1992-11-20,14.0
1992-11-21,19.94
1992-11-22,21.56
1992-11-23,14.18
1992-11-24,9.5
1992-11-25,20.66
1992-11-26,25.52
1992-11-27,31.64
1992-11-28,21.56
1992-11-29,13.82
1992-11-30,28.22
1992-12-01,29.3
1992-12-02,25.52
1992-12-03,10.4
1992-12-04,7.7
1992-12-05,13.46
1992-12-06,19.94
1992-12-07,21.92
1992-12-08,19.58
1992-12-09,23.0
1992-12-10,32.18
1992-12-11,13.46
1992-12-12,18.5
1992-12-13,17.06
1992-12-14,26.96
1992-12-15,15.26
1992-12-16,20.12
1992-12-17,14.54
1992-12-18,13.46
1992-12-19,8.24
1992-12-20,18.68
1992-12-21,20.66
1992-12-22,16.34
1992-12-23,25.34
1992-12-24,27.5
1992-12-25,26.96
1992-12-26,25.52
1992-12-27,23.0
1992-12-28,22.28
1992-12-29,17.06
1992-12-30,10.58
1992-12-31,21.38
1993-01-01,21.92
1993-01-02,5.54
1993-01-03,10.58
1993-01-04,13.46
1993-01-05,12.92
1993-01-06,13.46
1993-01-07,24.62
1993-01-08,21.02
1993-01-09,11.3
1993-01-10,13.46
1993-01-11,13.28
1993-01-12,8.78
1993-01-13,20.48
1993-01-14,29.48
1993-01-15,15.62
1993-01-16,26.24
1993-01-17,25.52
1993-01-18,22.28
1993-01-19,21.2
1993-01-20,27.32
1993-01-21,22.46
1993-01-22,20.3
1993-01-23,3.56
1993-01-24,26.42
1993-01-25,23.72
1993-01-26,26.06
1993-01-27,31.28
1993-01-28,24.98
1993-01-29,23.18
1993-01-30,16.88
1993-01-31,21.74
1993-02-01,23.0
1993-02-02,23.36
1993-02-03,27.32
1993-02-04,31.1
1993-02-05,34.88
1993-02-06,29.12
1993-02-07,24.08
1993-02-08,27.14
1993-02-09,28.4
1993-02-10,21.2
1993-02-11,23.72
1993-02-12,20.66
1993-02-13,16.52
1993-02-14,13.28
1993-02-15,13.82
1993-02-16,-5.62
1993-02-17,9.32
1993-02-18,27.5
1993-02-19,28.76
1993-02-20,12.38
1993-02-21,10.58
1993-02-22,16.34
1993-02-23,19.76
1993-02-24,12.38
1993-02-25,7.7
1993-02-26,9.68
1993-02-27,6.8
1993-02-28,14.18
1993-03-01,18.86
1993-03-02,26.06
1993-03-03,26.96
1993-03-04,24.98
1993-03-05,27.32
1993-03-06,31.64
1993-03-07,31.82
1993-03-08,33.08
1993-03-09,35.24
1993-03-10,31.64
1993-03-11,27.32
1993-03-12,24.98
1993-03-13,30.74
1993-03-14,32.54
1993-03-15,30.02
1993-03-16,30.38
1993-03-17,31.64
1993-03-18,31.46
1993-03-19,30.2
1993-03-20,30.02
1993-03-21,26.24
1993-03-22,35.6
1993-03-23,34.88
1993-03-24,30.38
1993-03-25,22.82
1993-03-26,24.8
1993-03-27,28.04
1993-03-28,28.22
1993-03-29,26.96
1993-03-30,26.96
1993-03-31,29.66
1993-04-01,25.52
1993-04-02,25.34
1993-04-03,32.0
1993-04-04,30.38
1993-04-05,20.48
1993-04-06,19.58
1993-04-07,26.42
1993-04-08,33.26
1993-04-09,24.98
1993-04-10,23.36
1993-04-11,16.16
1993-04-12,19.22
1993-04-13,22.82
1993-04-14,22.28
1993-04-15,32.72
1993-04-16,24.62
1993-04-17,28.4
1993-04-18,21.92
1993-04-19,16.52
1993-04-20,29.48
1993-04-21,31.64
1993-04-22,28.94
1993-04-23,24.08
1993-04-24,26.96
1993-04-25,30.2
1993-04-26,21.02
1993-04-27,24.98
1993-04-28,28.58
1993-04-29,33.8
1993-04-30,29.12
1993-05-01,32.54
1993-05-02,35.24
1993-05-03,38.12
1993-05-04,22.28
1993-05-05,27.32
1993-05-06,33.62
1993-05-07,22.64
1993-05-08,23.9
1993-05-09,30.02
1993-05-10,44.96
1993-05-11,58.82
1993-05-12,39.92
1993-05-13,26.42
1993-05-14,33.26
1993-05-15,37.4
1993-05-16,42.26
1993-05-17,42.26
1993-05-18,43.88
1993-05-19,37.58
1993-05-20,39.02
1993-05-21,35.96
1993-05-22,51.98
1993-05-23,35.96
1993-05-24,41.36
1993-05-25,36.68
1993-05-26,37.58
1993-05-27,33.98
1993-05-28,32.9
1993-05-29,29.84
1993-05-30,40.46
1993-05-31,40.1
1993-06-01,34.34
1993-06-02,31.1
1993-06-03,28.94
1993-06-04,34.16
1993-06-05,31.82
1993-06-06,38.48
1993-06-07,31.46
1993-06-08,28.4
1993-06-09,35.96
1993-06-10,36.86
1993-06-11,32.0
1993-06-12,23.54
1993-06-13,36.68
1993-06-14,45.32
1993-06-15,42.98
1993-06-16,34.52
1993-06-17,38.66
1993-06-18,46.04
1993-06-19,50.72
1993-06-20,50.54
1993-06-21,49.28
1993-06-22,27.32
1993-06-23,25.16
1993-06-24,34.52
1993-06-25,45.86
1993-06-26,50.18
1993-06-27,40.82
1993-06-28,32.18
1993-06-29,32.0
1993-06-30,35.42
1993-07-01,40.64
1993-07-02,42.62
1993-07-03,29.12
1993-07-04,36.32
1993-07-05,37.04
1993-07-06,43.88
1993-07-07,37.58
1993-07-08,41.36
1993-07-09,44.78
1993-07-10,40.82
1993-07-11,41.36
1993-07-12,33.08
1993-07-13,36.14
1993-07-14,30.56
1993-07-15,32.54
1993-07-16,29.84
1993-07-17,33.26
1993-07-18,35.78
1993-07-19,43.88
1993-07-20,36.32
1993-07-21,32.54
1993-07-22,43.7
1993-07-23,42.44
1993-07-24,38.48
1993-07-25,35.6
1993-07-26,
1993-07-27,41.9
1993-07-28,45.5
1993-07-29,46.22
1993-07-30,37.4
1993-07-31,44.6
1993-08-01,49.28
1993-08-02,50.9
1993-08-03,54.32
1993-08-04,72.14
1993-08-05,57.2
1993-08-06,57.02
1993-08-07,47.84
1993-08-08,46.04
1993-08-09,49.1
1993-08-10,48.92
1993-08-11,47.48
1993-08-12,40.1
1993-08-13,42.62
1993-08-14,46.22
1993-08-15,37.58
1993-08-16,38.12
1993-08-17,37.04
1993-08-18,45.68
1993-08-19,44.78
1993-08-20,48.92
1993-08-21,41.9
1993-08-22,43.88
1993-08-23,44.6
1993-08-24,35.42
1993-08-25,32.72
1993-08-26,34.88
1993-08-27,42.44
1993-08-28,46.04
1993-08-29,40.1
1993-08-30,39.2
1993-08-31,42.44
1993-09-01,51.08
1993-09-02,49.64
1993-09-03,52.52
1993-09-04,53.42
1993-09-05,53.6
1993-09-06,50.18
1993-09-07,48.2
1993-09-08,53.06
1993-09-09,55.04
1993-09-10,59.18
1993-09-11,55.58
1993-09-12,39.74
1993-09-13,33.98
1993-09-14,39.38
1993-09-15,39.02
1993-09-16,40.64
1993-09-17,36.86
1993-09-18,34.52
1993-09-19,35.06
1993-09-20,33.44
1993-09-21,29.66
1993-09-22,30.56
1993-09-23,33.62
1993-09-24,
1993-09-25,41.18
1993-09-26,44.06
1993-09-27,48.92
1993-09-28,51.98
1993-09-29,49.28
1993-09-30,52.7
1993-10-01,48.74
1993-10-02,
1993-10-03,48.38
1993-10-04,53.42
1993-10-05,42.26
1993-10-06,39.38
1993-10-07,36.14
1993-10-08,29.12
1993-10-09,30.02
1993-10-10,38.48
1993-10-11,39.02
1993-10-12,35.24
1993-10-13,
1993-10-14,34.52
1993-10-15,31.64
1993-10-16,32.72
1993-10-17,
1993-10-18,
1993-10-19,34.52
1993-10-20,
1993-10-21,39.38
1993-10-22,
1993-10-23,39.38
1993-10-24,38.12
1993-10-25,
1993-10-26,
1993-10-27,38.3
1993-10-28,44.24
1993-10-29,
1993-10-30,32.54
1993-10-31,39.92
1993-11-01,27.32
1993-11-02,31.64
1993-11-03,37.58
1993-11-04,25.88
1993-11-05,
1993-11-06,28.94
1993-11-07,26.78
1993-11-08,26.24
1993-11-09,30.92
1993-11-10,33.44
1993-11-11,29.3
1993-11-12,22.64
1993-11-13,21.56
1993-11-14,15.8
1993-11-15,23.54
1993-11-16,27.14
1993-11-17,25.88
1993-11-18,23.18
1993-11-19,
1993-11-20,
1993-11-21,27.32
1993-11-22,26.06
1993-11-23,10.94
1993-11-24,
1993-11-25,11.12
1993-11-26,24.08
1993-11-27,36.14
1993-11-28,35.78
1993-11-29,30.02
1993-11-30,24.44
1993-12-01,24.44
1993-12-02,19.4
1993-12-03,26.24
1993-12-04,
1993-12-05,15.44
1993-12-06,21.74
1993-12-07,24.44
1993-12-08,28.4
1993-12-09,23.72
1993-12-10,31.46
1993-12-11,31.28
1993-12-12,
1993-12-13,19.04
1993-12-14,23.0
1993-12-15,
1993-12-16,
1993-12-17,11.12
1993-12-18,
1993-12-19,15.44
1993-12-20,18.5
1993-12-21,21.2
1993-12-22,24.8
1993-12-23,21.38
1993-12-24,26.24
1993-12-25,29.48
1993-12-26,
1993-12-27,23.18
1993-12-28,20.3
1993-12-29,27.32
1993-12-30,33.44
1993-12-31,24.8
1994-01-01,27.32
1994-01-02,26.24
1994-01-03,
1994-01-04,33.98
1994-01-05,
1994-01-06,8.24
1994-01-07,17.42
1994-01-08,25.88
1994-01-09,12.56
1994-01-10,8.42
1994-01-11,14.72
1994-01-12,17.06
1994-01-13,29.12
1994-01-14,32.54
1994-01-15,33.26
1994-01-16,31.1
1994-01-17,
1994-01-18,
1994-01-19,35.6
1994-01-20,33.8
1994-01-21,37.58
1994-01-22,35.06
1994-01-23,34.52
1994-01-24,24.8
1994-01-25,15.62
1994-01-26,
1994-01-27,18.5
1994-01-28,15.62
1994-01-29,17.06
1994-01-30,27.68
1994-01-31,7.7
1994-02-01,14.72
1994-02-02,15.44
1994-02-03,18.68
1994-02-04,16.88
1994-02-05,17.96
1994-02-06,
1994-02-07,24.62
1994-02-08,6.26
1994-02-09,15.08
1994-02-10,23.18
1994-02-11,12.02
1994-02-12,8.96
1994-02-13,21.02
1994-02-14,
1994-02-15,26.78
1994-02-16,30.02
1994-02-17,29.12
1994-02-18,16.88
1994-02-19,14.36
1994-02-20,15.98
1994-02-21,18.32
1994-02-22,12.92
1994-02-23,19.76
1994-02-24,25.52
1994-02-25,25.52
1994-02-26,27.14
1994-02-27,26.6
1994-02-28,30.56
1994-03-01,
1994-03-02,36.14
1994-03-03,36.86
1994-03-04,
1994-03-05,27.68
1994-03-06,18.32
1994-03-07,
1994-03-08,27.86
1994-03-09,32.54
1994-03-10,32.36
1994-03-11,21.2
1994-03-12,22.82
1994-03-13,34.88
1994-03-14,40.1
1994-03-15,39.74
1994-03-16,29.48
1994-03-17,20.66
1994-03-18,28.76
1994-03-19,13.82
1994-03-20,15.44
1994-03-21,28.04
1994-03-22,15.8
1994-03-23,10.22
1994-03-24,21.56
1994-03-25,21.02
1994-03-26,26.24
1994-03-27,30.92
1994-03-28,35.6
1994-03-29,33.44
1994-03-30,31.64
1994-03-31,24.98
1994-04-01,27.68
1994-04-02,30.38
1994-04-03,31.64
1994-04-04,21.02
1994-04-05,23.0
1994-04-06,28.22
1994-04-07,20.66
1994-04-08,24.98
1994-04-09,24.26
1994-04-10,24.62
1994-04-11,25.16
1994-04-12,36.68
1994-04-13,27.32
1994-04-14,27.86
1994-04-15,
1994-04-16,41.18
1994-04-17,40.46
1994-04-18,41.9
1994-04-19,41.9
1994-04-20,37.4
1994-04-21,38.12
1994-04-22,
1994-04-23,27.32
1994-04-24,26.96
1994-04-25,25.16
1994-04-26,25.52
1994-04-27,27.68
1994-04-28,29.48
1994-04-29,30.56
1994-04-30,30.74
1994-05-01,26.78
1994-05-02,27.68
1994-05-03,32.36
1994-05-04,35.96
1994-05-05,34.52
1994-05-06,39.02
1994-05-07,41.18
1994-05-08,40.1
1994-05-09,47.3
1994-05-10,44.42
1994-05-11,49.64
1994-05-12,40.82
1994-05-13,31.82
1994-05-14,34.52
1994-05-15,39.02
1994-05-16,26.96
1994-05-17,27.5
1994-05-18,29.48
1994-05-19,31.64
1994-05-20,32.36
1994-05-21,33.98
1994-05-22,30.02
1994-05-23,39.38
1994-05-24,46.76
1994-05-25,50.18
1994-05-26,41.72
1994-05-27,37.22
1994-05-28,37.22
1994-05-29,37.94
1994-05-30,34.52
1994-05-31,49.28
1994-06-01,35.42
1994-06-02,38.12
1994-06-03,40.1
1994-06-04,36.32
1994-06-05,42.44
1994-06-06,29.66
1994-06-07,28.04
1994-06-08,26.78
1994-06-09,39.2
1994-06-10,45.86
1994-06-11,53.24
1994-06-12,46.58
1994-06-13,46.4
1994-06-14,26.06
1994-06-15,29.3
1994-06-16,31.1
1994-06-17,37.4
1994-06-18,32.9
1994-06-19,40.46
1994-06-20,47.84
1994-06-21,49.46
1994-06-22,49.28
1994-06-23,47.48
1994-06-24,39.38
1994-06-25,44.6
1994-06-26,33.62
1994-06-27,44.78
1994-06-28,53.6
1994-06-29,52.88
1994-06-30,52.16
1994-07-01,46.76
1994-07-02,46.76
1994-07-03,40.28
1994-07-04,45.32
1994-07-05,39.74
1994-07-06,35.96
1994-07-07,51.62
1994-07-08,56.66
1994-07-09,60.26
1994-07-10,54.32
1994-07-11,53.24
1994-07-12,52.88
1994-07-13,52.52
1994-07-14,54.68
1994-07-15,51.62
1994-07-16,56.66
1994-07-17,59.72
1994-07-18,50.72
1994-07-19,55.22
1994-07-20,59.9
1994-07-21,62.42
1994-07-22,64.22
1994-07-23,51.08
1994-07-24,55.58
1994-07-25,51.8
1994-07-26,49.82
1994-07-27,57.38
1994-07-28,59.54
1994-07-29,58.64
1994-07-30,56.84
1994-07-31,53.42
1994-08-01,51.08
1994-08-02,54.86
1994-08-03,50.18
1994-08-04,53.24
1994-08-05,50.72
1994-08-06,44.96
1994-08-07,51.44
1994-08-08,43.7
1994-08-09,42.08
1994-08-10,47.48
1994-08-11,46.4
1994-08-12,48.02
1994-08-13,50.72
1994-08-14,54.14
1994-08-15,53.42
1994-08-16,47.84
1994-08-17,45.68
1994-08-18,49.46
1994-08-19,47.84
1994-08-20,47.12
1994-08-21,45.68
1994-08-22,38.66
1994-08-23,46.94
1994-08-24,45.86
1994-08-25,46.04
1994-08-26,45.86
1994-08-27,46.04
1994-08-28,48.74
1994-08-29,41.54
1994-08-30,46.22
1994-08-31,49.82
1994-09-01,46.76
1994-09-02,43.34
1994-09-03,41.36
1994-09-04,37.04